# Mixing ratio of CO2 (xCO2) in dry air measured onboard R/V Ryofu-maru of the Japan Meteorological Agency.,,,,,,,,,,,,,,,,,,,,,,
"# Version 1.0; 16 April, 2004.",,,,,,,,,,,,,,,,,,,,,,
# Measured by Meteorological Research Institute. ,,,,,,,,,,,,,,,,,,,,,,
# PI : H. Y. Inoue,,,,,,,,,,,,,,,,,,,,,,
# Concetrarion scale = MRI87,,,,,,,,,,,,,,,,,,,,,,
# Date and Time = UTC,,,,,,,,,,,,,,,,,,,,,,
Ship,Cruise,Serial No.,Date,,,Time,,Latitude,Longitude,xCO2_Air,F,xCO2_Sea,F,Wind_Dir,Wind_Spd,Atm_Prs,Atm_Tmp.,SST,F,SSS,F,pH2O
,,,Year,Month,Day,Hour,Min.,Deg.,Deg.,ppm,,ppm,,Deg.,m/s,hPa,deg.C,deg.C,,,,hPa
Ryofu-maru_MRI,Ry8701,1,1987,1,14,9,,34.983,139.567,352.9,2,-99.9,9,-99,-9.9,1015.9,-99.9,17.4,2,-9.999,9,19.49
Ryofu-maru_MRI,Ry8701,2,1987,1,14,10,,34.883,139.417,354.2,2,-99.9,9,-99,-9.9,1016.4,-99.9,17.5,2,-9.999,9,19.61
Ryofu-maru_MRI,Ry8701,3,1987,1,14,11,,34.767,139.267,355.9,4,273.2,4,-99,-9.9,1016.8,-99.9,16.6,2,-9.999,9,18.53
Ryofu-maru_MRI,Ry8701,4,1987,1,14,12,,34.667,139.117,356.6,4,-99.9,9,-99,-9.9,1017.3,-99.9,17.5,2,-9.999,9,19.61
Ryofu-maru_MRI,Ry8701,5,1987,1,14,13,,34.6,139,356.8,2,302.6,2,-99,-9.9,1017.2,-99.9,17,2,-9.999,9,19
Ryofu-maru_MRI,Ry8701,6,1987,1,14,14,,34.533,138.883,358.1,4,-99.9,9,-99,-9.9,1017.2,-99.9,18.5,2,-9.999,9,20.89
Ryofu-maru_MRI,Ry8701,7,1987,1,14,15,,34.467,138.767,355.6,4,283.5,2,-99,-9.9,1017.1,-99.9,18.8,2,-9.999,9,21.28
Ryofu-maru_MRI,Ry8701,8,1987,1,14,16,,34.417,138.633,359.3,4,282,2,-99,-9.9,1017.7,-99.9,18.8,2,-9.999,9,21.28
Ryofu-maru_MRI,Ry8701,9,1987,1,14,17,,34.367,138.5,358.2,4,278,2,-99,-9.9,1018.3,-99.9,18.7,2,-9.999,9,21.15
Ryofu-maru_MRI,Ry8701,10,1987,1,14,18,,34.317,138.367,358,4,279.6,2,-99,-9.9,1018.9,-99.9,18.6,2,-9.999,9,21.02
Ryofu-maru_MRI,Ry8701,11,1987,1,14,19,,34.267,138.2,358.7,4,280.9,2,-99,-9.9,1019.7,-99.9,18.4,2,-9.999,9,20.76
Ryofu-maru_MRI,Ry8701,12,1987,1,14,20,,34.217,138.05,356.3,4,281.7,2,-99,-9.9,1020.5,-99.9,18.4,2,-9.999,9,20.76
Ryofu-maru_MRI,Ry8701,13,1987,1,14,21,,34.167,137.883,355.8,4,284.4,2,-99,-9.9,1021.3,-99.9,18.3,2,-9.999,9,20.63
Ryofu-maru_MRI,Ry8701,14,1987,1,14,22,,34.133,137.683,355.7,4,286.3,2,-99,-9.9,1021.7,-99.9,18.3,2,-9.999,9,20.63
Ryofu-maru_MRI,Ry8701,15,1987,1,14,23,,34.083,137.483,353.7,2,288.1,2,-99,-9.9,1022,-99.9,18.4,2,-9.999,9,20.76
Ryofu-maru_MRI,Ry8701,16,1987,1,15,0,,34.05,137.283,352.6,4,293.1,2,-99,-9.9,1022.4,-99.9,18.5,2,-9.999,9,20.89
Ryofu-maru_MRI,Ry8701,17,1987,1,15,1,,34.033,137.2,352.3,4,288.9,2,-99,-9.9,1022.9,-99.9,18.5,2,-9.999,9,20.89
Ryofu-maru_MRI,Ry8701,18,1987,1,15,2,,34,137.117,351.8,4,-99.9,9,-99,-9.9,1023.4,-99.9,18.5,2,-9.999,9,20.89
Ryofu-maru_MRI,Ry8701,19,1987,1,15,3,,33.983,137.033,350.4,4,-99.9,9,-99,-9.9,1023.9,-99.9,18.6,2,-9.999,9,21.02
Ryofu-maru_MRI,Ry8701,20,1987,1,15,4,,33.783,137.017,352.3,2,280.8,2,-99,-9.9,1023.8,-99.9,18.6,2,-9.999,9,21.02
Ryofu-maru_MRI,Ry8701,21,1987,1,15,5,,33.583,137,352.4,2,-99.9,9,-99,-9.9,1023.8,-99.9,18.4,2,-9.999,9,20.76
Ryofu-maru_MRI,Ry8701,22,1987,1,15,6,,33.383,136.983,352.8,2,284.3,2,-99,-9.9,1023.7,-99.9,18.4,2,-9.999,9,20.76
Ryofu-maru_MRI,Ry8701,23,1987,1,15,7,,33.317,136.983,349.3,4,275.8,2,-99,-9.9,1024.2,-99.9,18.4,2,-9.999,9,20.76
Ryofu-maru_MRI,Ry8701,24,1987,1,15,8,,33.25,136.967,351.4,4,-99.9,9,-99,-9.9,1024.6,-99.9,18.3,2,-9.999,9,20.63
Ryofu-maru_MRI,Ry8701,25,1987,1,15,9,,33.183,136.967,-99.9,2,290.1,2,-99,-9.9,1025.1,-99.9,18,2,-9.999,9,20.24
Ryofu-maru_MRI,Ry8701,26,1987,1,15,10,,33.017,136.983,-99.9,2,286.1,2,-99,-9.9,1025.6,-99.9,17.8,2,-9.999,9,19.99
Ryofu-maru_MRI,Ry8701,27,1987,1,15,11,,32.833,137,-99.9,2,-99.9,9,-99,-9.9,1026.2,-99.9,19.2,2,-9.999,9,21.82
Ryofu-maru_MRI,Ry8701,28,1987,1,15,12,,32.667,137.017,352.9,2,286.3,2,-99,-9.9,1026.7,-99.9,19.2,2,-9.999,9,21.82
Ryofu-maru_MRI,Ry8701,29,1987,1,15,13,,32.567,137.033,352.7,2,287.5,2,-99,-9.9,1026.7,-99.9,19.2,2,-9.999,9,21.82
Ryofu-maru_MRI,Ry8701,30,1987,1,15,14,,32.483,137.05,352,2,293.1,2,-99,-9.9,1026.5,-99.9,19.6,2,-9.999,9,22.37
Ryofu-maru_MRI,Ry8701,31,1987,1,15,15,,32.383,137.067,352.2,2,294.1,2,-99,-9.9,1026.3,-99.9,19.2,2,-9.999,9,21.82
Ryofu-maru_MRI,Ry8701,32,1987,1,15,16,,32.25,137.067,351.6,2,-99.9,9,-99,-9.9,1026.1,-99.9,20.3,2,-9.999,9,23.36
Ryofu-maru_MRI,Ry8701,33,1987,1,15,17,,32.117,137.067,351.5,2,291.2,2,-99,-9.9,1026.1,-99.9,20.8,2,-9.999,9,24.1
Ryofu-maru_MRI,Ry8701,34,1987,1,15,18,,31.983,137.067,351.6,2,289.3,2,-99,-9.9,1026.1,-99.9,20.8,2,-9.999,9,24.1
Ryofu-maru_MRI,Ry8701,35,1987,1,15,19,,31.883,137.083,351.8,2,289.8,2,-99,-9.9,1026.2,-99.9,20.8,2,-9.999,9,24.1
Ryofu-maru_MRI,Ry8701,36,1987,1,15,20,,31.8,137.1,350.9,4,281.8,2,-99,-9.9,1026.4,-99.9,20.4,2,-9.999,9,23.51
Ryofu-maru_MRI,Ry8701,37,1987,1,15,21,,31.7,137.117,350.9,4,282.4,2,-99,-9.9,1026.8,-99.9,20.3,2,-9.999,9,23.36
Ryofu-maru_MRI,Ry8701,38,1987,1,15,22,,31.483,137.083,351.1,2,281.3,2,-99,-9.9,1027.3,-99.9,20.2,2,-9.999,9,23.22
Ryofu-maru_MRI,Ry8701,39,1987,1,15,23,,31.283,137.05,351.2,2,288.2,2,-99,-9.9,1027.8,-99.9,20.4,2,-9.999,9,23.51
Ryofu-maru_MRI,Ry8701,40,1987,1,16,0,,31.067,137.017,351.3,2,281.9,2,-99,-9.9,1027.8,-99.9,20.2,2,-9.999,9,23.22
Ryofu-maru_MRI,Ry8701,41,1987,1,16,1,,31,137.017,351.2,2,282.9,2,-99,-9.9,1027.3,-99.9,20.2,2,-9.999,9,23.22
Ryofu-maru_MRI,Ry8701,42,1987,1,16,2,,30.917,137.033,351.2,2,287.5,2,-99,-9.9,1026.4,-99.9,20.3,2,-9.999,9,23.36
Ryofu-maru_MRI,Ry8701,43,1987,1,16,3,,30.85,137.033,351.2,2,286.1,2,-99,-9.9,1025.6,-99.9,20.4,2,-9.999,9,23.51
Ryofu-maru_MRI,Ry8701,44,1987,1,16,4,,30.65,137.017,351.3,2,281.8,2,-99,-9.9,1025.1,-99.9,20.3,2,-9.999,9,23.36
Ryofu-maru_MRI,Ry8701,45,1987,1,16,5,,30.433,137.017,351.1,2,284.3,2,-99,-9.9,1024.9,-99.9,20.2,2,-9.999,9,23.22
Ryofu-maru_MRI,Ry8701,46,1987,1,16,6,,30.233,137,353.5,4,-99.9,9,-99,-9.9,1024.9,-99.9,20.2,2,-9.999,9,23.22
Ryofu-maru_MRI,Ry8701,47,1987,1,16,7,,30.15,137,350.1,4,-99.9,9,-99,-9.9,1024.9,-99.9,20.1,2,-9.999,9,23.08
Ryofu-maru_MRI,Ry8701,48,1987,1,16,8,,30.083,136.983,347.2,4,-99.9,9,-99,-9.9,1024.9,-99.9,20.1,2,-9.999,9,23.08
Ryofu-maru_MRI,Ry8701,49,1987,1,16,9,,30,136.983,351.2,2,285.3,2,-99,-9.9,1024.9,-99.9,20.1,2,-9.999,9,23.08
Ryofu-maru_MRI,Ry8701,50,1987,1,16,10,,30,136.983,351.2,2,283.3,2,-99,-9.9,1024.9,-99.9,20.1,2,-9.999,9,23.08
Ryofu-maru_MRI,Ry8701,51,1987,1,16,11,,29.983,136.983,351.1,2,283.2,2,-99,-9.9,1024.8,-99.9,20.1,2,-9.999,9,23.08
Ryofu-maru_MRI,Ry8701,52,1987,1,16,12,,29.983,136.983,351.4,2,284,2,-99,-9.9,1024.6,-99.9,20.1,2,-9.999,9,23.08
Ryofu-maru_MRI,Ry8701,53,1987,1,16,13,,29.817,136.983,350.8,2,284.7,2,-99,-9.9,1024.3,-99.9,20.1,2,-9.999,9,23.08
Ryofu-maru_MRI,Ry8701,54,1987,1,16,14,,29.633,136.983,350.5,2,283.9,2,-99,-9.9,1023.8,-99.9,20.1,2,-9.999,9,23.08
Ryofu-maru_MRI,Ry8701,55,1987,1,16,15,,29.467,136.983,350.4,2,285.8,2,-99,-9.9,1023.4,-99.9,20.4,2,-9.999,9,23.51
Ryofu-maru_MRI,Ry8701,56,1987,1,16,16,,29.317,136.983,350.4,2,284.3,2,-99,-9.9,1023,-99.9,20.5,2,-9.999,9,23.65
Ryofu-maru_MRI,Ry8701,57,1987,1,16,17,,29.167,137,350.2,2,283.6,2,-99,-9.9,1022.7,-99.9,20.5,2,-9.999,9,23.65
Ryofu-maru_MRI,Ry8701,58,1987,1,16,18,,29.017,137,350.4,2,282.7,2,-99,-9.9,1022.3,-99.9,20.5,2,-9.999,9,23.65
Ryofu-maru_MRI,Ry8701,59,1987,1,16,19,,28.9,136.983,350.2,2,287.6,2,-99,-9.9,1022,-99.9,20.5,2,-9.999,9,23.65
Ryofu-maru_MRI,Ry8701,60,1987,1,16,20,,28.783,136.983,350.4,2,290.9,2,-99,-9.9,1021.8,-99.9,20.4,2,-9.999,9,23.51
Ryofu-maru_MRI,Ry8701,61,1987,1,16,21,,28.667,136.967,350.4,2,287.6,2,-99,-9.9,1021.8,-99.9,20.4,2,-9.999,9,23.51
Ryofu-maru_MRI,Ry8701,62,1987,1,16,22,,28.467,136.983,350.1,2,283.1,2,-99,-9.9,1022.1,-99.9,20.2,2,-9.999,9,23.22
Ryofu-maru_MRI,Ry8701,63,1987,1,16,23,,28.267,137,350.3,2,284.1,2,-99,-9.9,1022.5,-99.9,20.3,2,-9.999,9,23.36
Ryofu-maru_MRI,Ry8701,64,1987,1,17,0,,28.067,137.017,350.4,2,278.7,2,-99,-9.9,1022.5,-99.9,20.3,2,-9.999,9,23.36
Ryofu-maru_MRI,Ry8701,65,1987,1,17,1,,28,137.017,350.2,2,282.2,2,-99,-9.9,1021.9,-99.9,20.3,2,-9.999,9,23.36
Ryofu-maru_MRI,Ry8701,66,1987,1,17,2,,27.95,137.017,350.1,2,-99.9,9,-99,-9.9,1020.9,-99.9,20.4,2,-9.999,9,23.51
Ryofu-maru_MRI,Ry8701,67,1987,1,17,3,,27.883,137.017,350,2,-99.9,9,-99,-9.9,1019.9,-99.9,20.4,2,-9.999,9,23.51
Ryofu-maru_MRI,Ry8701,68,1987,1,17,4,,27.683,137.017,350,2,289.1,2,-99,-9.9,1019.1,-99.9,20.4,2,-9.999,9,23.51
Ryofu-maru_MRI,Ry8701,69,1987,1,17,5,,27.5,137,350.5,2,294,2,-99,-9.9,1018.7,-99.9,21.6,2,-9.999,9,25.31
Ryofu-maru_MRI,Ry8701,70,1987,1,17,6,,27.3,137,350.4,2,293.3,2,-99,-9.9,1018.6,-99.9,21.4,2,-9.999,9,25
Ryofu-maru_MRI,Ry8701,71,1987,1,17,7,,27.2,137,350.6,2,294.3,2,-99,-9.9,1018.8,-99.9,21.6,2,-9.999,9,25.31
Ryofu-maru_MRI,Ry8701,72,1987,1,17,8,,27.117,137.017,350.4,2,293.6,2,-99,-9.9,1019.3,-99.9,21.6,2,-9.999,9,25.31
Ryofu-maru_MRI,Ry8701,73,1987,1,17,9,,27.017,137.017,350.5,2,290.8,2,-99,-9.9,1019.9,-99.9,21.5,2,-9.999,9,25.15
Ryofu-maru_MRI,Ry8701,74,1987,1,17,10,,26.817,137.017,350.4,2,-99.9,9,-99,-9.9,1020.5,-99.9,21.5,2,-9.999,9,25.15
Ryofu-maru_MRI,Ry8701,75,1987,1,17,11,,26.633,137,350.7,2,283.6,2,-99,-9.9,1020.9,-99.9,21.2,2,-9.999,9,24.7
Ryofu-maru_MRI,Ry8701,76,1987,1,17,12,,26.433,137,350.6,2,285.7,2,-99,-9.9,1021.1,-99.9,21.1,2,-9.999,9,24.55
Ryofu-maru_MRI,Ry8701,77,1987,1,17,13,,26.283,137,350.7,2,292.2,2,-99,-9.9,1020.9,-99.9,21.3,2,-9.999,9,24.85
Ryofu-maru_MRI,Ry8701,78,1987,1,17,14,,26.15,137,350.7,2,293,2,-99,-9.9,1020.6,-99.9,21.5,2,-9.999,9,25.15
Ryofu-maru_MRI,Ry8701,79,1987,1,17,15,,26,137,350.4,2,292.1,2,-99,-9.9,1020.1,-99.9,21.5,2,-9.999,9,25.15
Ryofu-maru_MRI,Ry8701,80,1987,1,17,16,,25.85,137,350.5,2,291.3,2,-99,-9.9,1019.7,-99.9,21.4,2,-9.999,9,25
Ryofu-maru_MRI,Ry8701,81,1987,1,17,17,,25.7,136.983,350.4,2,291.3,2,-99,-9.9,1019.5,-99.9,21.3,2,-9.999,9,24.85
Ryofu-maru_MRI,Ry8701,82,1987,1,17,18,,25.55,136.983,350.6,2,292.2,2,-99,-9.9,1019.4,-99.9,21.4,2,-9.999,9,25
Ryofu-maru_MRI,Ry8701,83,1987,1,17,19,,25.367,136.983,350.9,2,295.1,2,-99,-9.9,1019.5,-99.9,21.6,2,-9.999,9,25.31
Ryofu-maru_MRI,Ry8701,84,1987,1,17,20,,25.183,137,351.2,2,293.5,2,-99,-9.9,1019.6,-99.9,21.9,2,-9.999,9,25.78
Ryofu-maru_MRI,Ry8701,85,1987,1,17,21,,25,137,350.9,2,290.6,2,-99,-9.9,1019.9,-99.9,21.9,2,-9.999,9,25.78
Ryofu-maru_MRI,Ry8701,86,1987,1,17,22,,25,136.983,350.5,2,288.9,2,-99,-9.9,1020.2,-99.9,21.9,2,-9.999,9,25.78
Ryofu-maru_MRI,Ry8701,87,1987,1,17,23,,25.017,136.967,350.4,2,290.3,2,-99,-9.9,1020.5,-99.9,21.9,2,-9.999,9,25.78
Ryofu-maru_MRI,Ry8701,88,1987,1,18,0,,25.017,136.95,350.5,2,293.6,2,-99,-9.9,1020.5,-99.9,22.2,2,-9.999,9,26.25
Ryofu-maru_MRI,Ry8701,89,1987,1,18,1,,24.8,136.967,350.5,2,-99.9,9,-99,-9.9,1020.2,-99.9,22.7,2,-9.999,9,27.06
Ryofu-maru_MRI,Ry8701,90,1987,1,18,2,,24.6,136.983,350.4,2,297.9,2,-99,-9.9,1019.7,-99.9,22.6,2,-9.999,9,26.9
Ryofu-maru_MRI,Ry8701,91,1987,1,18,3,,24.383,137,350.3,2,305.1,2,-99,-9.9,1019.1,-99.9,23,2,-9.999,9,27.56
Ryofu-maru_MRI,Ry8701,92,1987,1,18,4,,24.25,137,350.3,2,299.8,2,-99,-9.9,1018.5,-99.9,23,2,-9.999,9,27.56
Ryofu-maru_MRI,Ry8701,93,1987,1,18,5,,24.133,136.983,350.3,2,298.8,2,-99,-9.9,1018,-99.9,23,2,-9.999,9,27.56
Ryofu-maru_MRI,Ry8701,94,1987,1,18,6,,24,136.983,350.2,2,299.6,2,-99,-9.9,1017.7,-99.9,23,2,-9.999,9,27.56
Ryofu-maru_MRI,Ry8701,95,1987,1,18,7,,23.85,136.983,350.1,2,301.5,2,-99,-9.9,1017.7,-99.9,22.9,2,-9.999,9,27.39
Ryofu-maru_MRI,Ry8701,96,1987,1,18,8,,23.7,136.983,350.3,2,300.9,2,-99,-9.9,1018,-99.9,23,2,-9.999,9,27.56
Ryofu-maru_MRI,Ry8701,97,1987,1,18,9,,23.55,136.983,350.3,2,298.8,2,-99,-9.9,1018.3,-99.9,23,2,-9.999,9,27.56
Ryofu-maru_MRI,Ry8701,98,1987,1,18,10,,23.367,136.983,350,2,296.3,2,-99,-9.9,1018.6,-99.9,22.9,2,-9.999,9,27.39
Ryofu-maru_MRI,Ry8701,99,1987,1,18,11,,23.183,137,350.2,2,295.3,2,-99,-9.9,1018.8,-99.9,22.8,2,-9.999,9,27.23
Ryofu-maru_MRI,Ry8701,100,1987,1,18,12,,23,137,350,2,294.9,2,-99,-9.9,1019,-99.9,22.8,2,-9.999,9,27.23
Ryofu-maru_MRI,Ry8701,101,1987,1,18,13,,22.9,136.983,350.2,2,295.8,2,-99,-9.9,1019.1,-99.9,22.8,2,-9.999,9,27.23
Ryofu-maru_MRI,Ry8701,102,1987,1,18,14,,22.8,136.983,350.1,2,292.2,2,-99,-9.9,1019.1,-99.9,22.8,2,-9.999,9,27.23
Ryofu-maru_MRI,Ry8701,103,1987,1,18,15,,22.7,136.967,349.9,2,298.9,2,-99,-9.9,1018.7,-99.9,22.9,2,-9.999,9,27.39
Ryofu-maru_MRI,Ry8701,104,1987,1,18,16,,22.483,136.983,349.9,2,296.9,2,-99,-9.9,1018,-99.9,23.1,2,-9.999,9,27.73
Ryofu-maru_MRI,Ry8701,105,1987,1,18,17,,22.267,136.983,350,2,296.1,2,-99,-9.9,1017.2,-99.9,23.3,2,-9.999,9,28.06
Ryofu-maru_MRI,Ry8701,106,1987,1,18,18,,22.05,137,349.8,2,291,2,-99,-9.9,1016.6,-99.9,23.4,2,-9.999,9,28.23
Ryofu-maru_MRI,Ry8701,107,1987,1,18,19,,21.95,137,349.8,2,293.4,2,-99,-9.9,1016.4,-99.9,23.6,2,-9.999,9,28.58
Ryofu-maru_MRI,Ry8701,108,1987,1,18,20,,21.85,137,350,2,-99.9,9,-99,-9.9,1016.5,-99.9,24,2,-9.999,9,29.27
Ryofu-maru_MRI,Ry8701,109,1987,1,18,21,,21.75,137,349.7,2,304.7,2,-99,-9.9,1016.9,-99.9,24.2,2,-9.999,9,29.63
Ryofu-maru_MRI,Ry8701,110,1987,1,18,22,,21.533,137,349.6,2,302.5,2,-99,-9.9,1017.4,-99.9,24.1,2,-9.999,9,29.45
Ryofu-maru_MRI,Ry8701,111,1987,1,18,23,,21.317,136.983,349.8,2,300.2,2,-99,-9.9,1017.8,-99.9,24,2,-9.999,9,29.27
Ryofu-maru_MRI,Ry8701,112,1987,1,19,0,,21.1,136.983,351.6,4,303.8,2,-99,-9.9,1017.8,-99.9,24.1,2,-9.999,9,29.45
Ryofu-maru_MRI,Ry8701,113,1987,1,19,1,,21,136.983,349.6,2,302.8,2,-99,-9.9,1017.2,-99.9,24.2,2,-9.999,9,29.63
Ryofu-maru_MRI,Ry8701,114,1987,1,19,2,,20.917,136.967,348.7,4,301.7,2,-99,-9.9,1016.3,-99.9,24.2,2,-9.999,9,29.63
Ryofu-maru_MRI,Ry8701,115,1987,1,19,3,,20.817,136.967,347.9,4,-99.9,9,-99,-9.9,1015.2,-99.9,25.8,2,-9.999,9,32.59
Ryofu-maru_MRI,Ry8701,116,1987,1,19,4,,20.617,136.983,349.5,2,312.6,2,-99,-9.9,1014.2,-99.9,26,2,-9.999,9,32.98
Ryofu-maru_MRI,Ry8701,117,1987,1,19,5,,20.4,136.983,349.3,2,315.3,2,-99,-9.9,1013.4,-99.9,26,2,-9.999,9,32.98
Ryofu-maru_MRI,Ry8701,118,1987,1,19,6,,20.2,137,349.3,2,311.6,2,-99,-9.9,1013,-99.9,26.1,2,-9.999,9,33.18
Ryofu-maru_MRI,Ry8701,119,1987,1,19,7,,20.133,137,349.3,2,311.5,2,-99,-9.9,1013,-99.9,26.1,2,-9.999,9,33.18
Ryofu-maru_MRI,Ry8701,120,1987,1,19,8,,20.067,136.983,349.4,2,312.3,2,-99,-9.9,1013.2,-99.9,26.1,2,-9.999,9,33.18
Ryofu-maru_MRI,Ry8701,121,1987,1,19,9,,20,136.983,356.1,4,312,2,-99,-9.9,1013.5,-99.9,26.1,2,-9.999,9,33.18
Ryofu-maru_MRI,Ry8701,122,1987,1,19,10,,20,136.967,353.1,4,-99.9,9,-99,-9.9,1013.8,-99.9,26.1,2,-9.999,9,33.18
Ryofu-maru_MRI,Ry8701,123,1987,1,19,11,,20,136.95,347.4,4,-99.9,9,-99,-9.9,1013.9,-99.9,26.1,2,-9.999,9,33.18
Ryofu-maru_MRI,Ry8701,124,1987,1,19,12,,20,136.933,354.5,4,314.3,2,-99,-9.9,1013.9,-99.9,26.2,2,-9.999,9,33.37
Ryofu-maru_MRI,Ry8701,125,1987,1,19,13,,19.783,136.95,349,2,313.8,2,-99,-9.9,1013.8,-99.9,26.2,2,-9.999,9,33.37
Ryofu-maru_MRI,Ry8701,126,1987,1,19,14,,19.583,136.967,349.2,2,312.9,2,-99,-9.9,1013.5,-99.9,26.2,2,-9.999,9,33.37
Ryofu-maru_MRI,Ry8701,127,1987,1,19,15,,19.367,136.983,349.2,2,313.2,2,-99,-9.9,1013.1,-99.9,26.2,2,-9.999,9,33.37
Ryofu-maru_MRI,Ry8701,128,1987,1,19,16,,19.25,136.983,349.2,2,312.7,2,-99,-9.9,1012.6,-99.9,26.3,2,-9.999,9,33.57
Ryofu-maru_MRI,Ry8701,129,1987,1,19,17,,19.117,137,349.1,2,312.1,2,-99,-9.9,1012.1,-99.9,26.3,2,-9.999,9,33.57
Ryofu-maru_MRI,Ry8701,130,1987,1,19,18,,19,137,348.8,2,307.7,2,-99,-9.9,1011.8,-99.9,26.2,2,-9.999,9,33.37
Ryofu-maru_MRI,Ry8701,131,1987,1,19,19,,18.8,136.983,348.9,2,312.6,2,-99,-9.9,1011.9,-99.9,26.3,2,-9.999,9,33.57
Ryofu-maru_MRI,Ry8701,132,1987,1,19,20,,18.617,136.983,348.9,2,316.9,2,-99,-9.9,1012.2,-99.9,26.4,2,-9.999,9,33.77
Ryofu-maru_MRI,Ry8701,133,1987,1,19,21,,18.417,136.967,350.7,4,310.5,2,-99,-9.9,1012.8,-99.9,26.3,2,-9.999,9,33.57
Ryofu-maru_MRI,Ry8701,134,1987,1,19,22,,18.283,136.983,348.5,2,315,2,-99,-9.9,1013.5,-99.9,26.4,2,-9.999,9,33.77
Ryofu-maru_MRI,Ry8701,135,1987,1,19,23,,18.133,136.983,348.6,2,314.6,2,-99,-9.9,1014.1,-99.9,26.5,2,-9.999,9,33.97
Ryofu-maru_MRI,Ry8701,136,1987,1,20,0,,18,137,348.3,2,322,2,-99,-9.9,1014.4,-99.9,26.7,2,-9.999,9,34.37
Ryofu-maru_MRI,Ry8701,137,1987,1,20,1,,17.817,137,347.7,4,324.4,2,-99,-9.9,1014.2,-99.9,26.8,2,-9.999,9,34.57
Ryofu-maru_MRI,Ry8701,138,1987,1,20,2,,17.617,137,347,4,326,2,-99,-9.9,1013.7,-99.9,27.2,2,-9.999,9,35.4
Ryofu-maru_MRI,Ry8701,139,1987,1,20,3,,17.433,137,348.2,2,327.2,2,-99,-9.9,1013.1,-99.9,27.3,2,-9.999,9,35.6
Ryofu-maru_MRI,Ry8701,140,1987,1,20,4,,17.283,137,348.2,2,323.7,2,-99,-9.9,1012.6,-99.9,26.9,2,-9.999,9,34.78
Ryofu-maru_MRI,Ry8701,141,1987,1,20,5,,17.15,137,348.1,2,315.9,2,-99,-9.9,1012.2,-99.9,26.6,2,-9.999,9,34.17
Ryofu-maru_MRI,Ry8701,142,1987,1,20,6,,17,137,348.6,2,-99.9,9,-99,-9.9,1012,-99.9,27,2,-9.999,9,34.98
Ryofu-maru_MRI,Ry8701,143,1987,1,20,7,,16.833,137,347.9,2,331.2,2,-99,-9.9,1012.1,-99.9,27.4,2,-9.999,9,35.81
Ryofu-maru_MRI,Ry8701,144,1987,1,20,8,,16.667,137,348,2,330.9,2,-99,-9.9,1012.3,-99.9,27.4,2,-9.999,9,35.81
Ryofu-maru_MRI,Ry8701,145,1987,1,20,9,,16.5,137,348,2,-99.9,9,-99,-9.9,1012.6,-99.9,27.3,2,-9.999,9,35.6
Ryofu-maru_MRI,Ry8701,146,1987,1,20,10,,16.333,137,347.7,2,-99.9,9,-99,-9.9,1013,-99.9,27.4,2,-9.999,9,35.81
Ryofu-maru_MRI,Ry8701,147,1987,1,20,11,,16.15,137,348,2,-99.9,9,-99,-9.9,1013.3,-99.9,26.9,2,-9.999,9,34.78
Ryofu-maru_MRI,Ry8701,148,1987,1,20,12,,15.983,137,347.9,2,-99.9,9,-99,-9.9,1013.5,-99.9,26.8,2,-9.999,9,34.57
Ryofu-maru_MRI,Ry8701,149,1987,1,20,13,,15.8,137,347.9,2,-99.9,9,-99,-9.9,1013.6,-99.9,26.7,2,-9.999,9,34.37
Ryofu-maru_MRI,Ry8701,150,1987,1,20,14,,15.6,137,348,2,328.5,2,-99,-9.9,1013.5,-99.9,27,2,-9.999,9,34.98
Ryofu-maru_MRI,Ry8701,151,1987,1,20,15,,15.417,137,347.7,2,324.7,2,-99,-9.9,1013.2,-99.9,27,2,-9.999,9,34.98
Ryofu-maru_MRI,Ry8701,152,1987,1,20,16,,15.267,136.983,347.8,2,322.7,2,-99,-9.9,1012.7,-99.9,27.1,2,-9.999,9,35.19
Ryofu-maru_MRI,Ry8701,153,1987,1,20,17,,15.133,136.983,347.8,2,322,2,-99,-9.9,1012.1,-99.9,27.1,2,-9.999,9,35.19
Ryofu-maru_MRI,Ry8701,154,1987,1,20,18,,14.983,136.967,348,2,-99.9,9,-99,-9.9,1011.7,-99.9,27.1,2,-9.999,9,35.19
Ryofu-maru_MRI,Ry8701,155,1987,1,20,19,,14.983,136.95,347.7,2,-99.9,9,-99,-9.9,1011.6,-99.9,27.1,2,-9.999,9,35.19
Ryofu-maru_MRI,Ry8701,156,1987,1,20,20,,14.983,136.933,347.8,2,-99.9,9,-99,-9.9,1011.8,-99.9,27.1,2,-9.999,9,35.19
Ryofu-maru_MRI,Ry8701,157,1987,1,20,21,,14.983,136.917,347.8,2,-99.9,9,-99,-9.9,1012.2,-99.9,27.1,2,-9.999,9,35.19
Ryofu-maru_MRI,Ry8701,158,1987,1,20,22,,14.883,136.917,347.9,2,-99.9,9,-99,-9.9,1012.7,-99.9,27.1,2,-9.999,9,35.19
Ryofu-maru_MRI,Ry8701,159,1987,1,20,23,,14.767,136.933,347.9,2,-99.9,9,-99,-9.9,1013.2,-99.9,27.2,2,-9.999,9,35.4
Ryofu-maru_MRI,Ry8701,160,1987,1,21,0,,14.667,136.933,348.1,2,-99.9,9,-99,-9.9,1013.4,-99.9,27.3,2,-9.999,9,35.6
Ryofu-maru_MRI,Ry8701,161,1987,1,21,1,,14.45,136.95,348,2,325.2,2,-99,-9.9,1013.2,-99.9,27.3,2,-9.999,9,35.6
Ryofu-maru_MRI,Ry8701,162,1987,1,21,2,,14.25,136.983,-99.9,2,323.9,2,-99,-9.9,1012.7,-99.9,27.3,2,-9.999,9,35.6
Ryofu-maru_MRI,Ry8701,163,1987,1,21,3,,14.033,137,-99.9,2,-99.9,9,-99,-9.9,1012,-99.9,27.4,2,-9.999,9,35.81
Ryofu-maru_MRI,Ry8701,164,1987,1,21,4,,14,136.983,348.4,2,-99.9,9,-99,-9.9,1011.4,-99.9,27.4,2,-9.999,9,35.81
Ryofu-maru_MRI,Ry8701,165,1987,1,21,5,,13.95,136.95,348.5,2,-99.9,9,-99,-9.9,1010.9,-99.9,27.4,2,-9.999,9,35.81
Ryofu-maru_MRI,Ry8701,166,1987,1,21,6,,13.917,136.933,348.1,2,-99.9,9,-99,-9.9,1010.6,-99.9,27.4,2,-9.999,9,35.81
Ryofu-maru_MRI,Ry8701,167,1987,1,21,7,,13.717,136.95,348.8,2,327.9,2,-99,-9.9,1010.6,-99.9,27.4,2,-9.999,9,35.81
Ryofu-maru_MRI,Ry8701,168,1987,1,21,8,,13.533,136.95,348.5,2,328.6,2,-99,-9.9,1010.9,-99.9,27.5,2,-9.999,9,36.02
Ryofu-maru_MRI,Ry8701,169,1987,1,21,9,,13.333,136.967,348.4,2,328.1,2,-99,-9.9,1011.3,-99.9,27.6,2,-9.999,9,36.23
Ryofu-maru_MRI,Ry8701,170,1987,1,21,10,,13.217,136.967,348.5,2,328.1,2,-99,-9.9,1011.9,-99.9,27.6,2,-9.999,9,36.23
Ryofu-maru_MRI,Ry8701,171,1987,1,21,11,,13.117,136.967,348.4,2,328.5,2,-99,-9.9,1012.5,-99.9,27.5,2,-9.999,9,36.02
Ryofu-maru_MRI,Ry8701,172,1987,1,21,12,,13,136.967,348.4,2,327.1,2,-99,-9.9,1013,-99.9,27.4,2,-9.999,9,35.81
Ryofu-maru_MRI,Ry8701,173,1987,1,21,13,,13,136.933,348.4,2,327.9,2,-99,-9.9,1013.3,-99.9,27.4,2,-9.999,9,35.81
Ryofu-maru_MRI,Ry8701,174,1987,1,21,14,,12.983,136.9,348.4,2,327.7,2,-99,-9.9,1013.4,-99.9,27.4,2,-9.999,9,35.81
Ryofu-maru_MRI,Ry8701,175,1987,1,21,15,,12.983,136.867,346.5,4,327.2,2,-99,-9.9,1013.3,-99.9,27.4,2,-9.999,9,35.81
Ryofu-maru_MRI,Ry8701,176,1987,1,21,16,,12.983,136.833,348.7,2,326.6,2,-99,-9.9,1012.9,-99.9,27.4,2,-9.999,9,35.81
Ryofu-maru_MRI,Ry8701,177,1987,1,21,17,,12.967,136.8,348.7,2,326.2,2,-99,-9.9,1012.5,-99.9,27.4,2,-9.999,9,35.81
Ryofu-maru_MRI,Ry8701,178,1987,1,21,18,,12.967,136.767,348.6,2,326.4,2,-99,-9.9,1012.2,-99.9,27.4,2,-9.999,9,35.81
Ryofu-maru_MRI,Ry8701,179,1987,1,21,19,,12.95,136.75,348.7,2,327.6,2,-99,-9.9,1012.1,-99.9,27.4,2,-9.999,9,35.81
Ryofu-maru_MRI,Ry8701,180,1987,1,21,20,,12.95,136.717,348.5,2,325.4,2,-99,-9.9,1012.3,-99.9,27.4,2,-9.999,9,35.81
Ryofu-maru_MRI,Ry8701,181,1987,1,21,21,,12.933,136.7,-99.9,2,-99.9,9,-99,-9.9,1012.7,-99.9,27.2,2,-9.999,9,35.4
Ryofu-maru_MRI,Ry8701,182,1987,1,21,22,,12.783,136.8,-99.9,2,-99.9,9,-99,-9.9,1013.2,-99.9,27.1,2,-9.999,9,35.19
Ryofu-maru_MRI,Ry8701,183,1987,1,21,23,,12.65,136.917,349,4,-99.9,9,-99,-9.9,1013.6,-99.9,27.1,2,-9.999,9,35.19
Ryofu-maru_MRI,Ry8701,184,1987,1,22,0,,12.5,137.017,348.6,2,331.5,2,-99,-9.9,1013.8,-99.9,27.1,2,-9.999,9,35.19
Ryofu-maru_MRI,Ry8701,185,1987,1,22,1,,12.5,137,348.2,2,331.2,2,-99,-9.9,1013.6,-99.9,27.1,2,-9.999,9,35.19
Ryofu-maru_MRI,Ry8701,186,1987,1,22,2,,12.517,137,348.2,2,334.2,2,-99,-9.9,1013.1,-99.9,27.2,2,-9.999,9,35.4
Ryofu-maru_MRI,Ry8701,187,1987,1,22,3,,12.517,136.983,348.4,2,333.7,2,-99,-9.9,1012.5,-99.9,27.4,2,-9.999,9,35.81
Ryofu-maru_MRI,Ry8701,188,1987,1,22,4,,12.517,136.967,348.6,2,330.4,2,-99,-9.9,1012,-99.9,27.4,2,-9.999,9,35.81
Ryofu-maru_MRI,Ry8701,189,1987,1,22,5,,12.517,136.95,347.2,4,330.5,2,-99,-9.9,1011.6,-99.9,27.4,2,-9.999,9,35.81
Ryofu-maru_MRI,Ry8701,190,1987,1,22,6,,12.517,136.933,-99.9,2,-99.9,9,-99,-9.9,1011.3,-99.9,27.4,2,-9.999,9,35.81
Ryofu-maru_MRI,Ry8701,191,1987,1,22,7,,12.5,136.917,-99.9,2,-99.9,9,-99,-9.9,1011.3,-99.9,27.4,2,-9.999,9,35.81
Ryofu-maru_MRI,Ry8701,192,1987,1,22,8,,12.5,136.9,348.2,2,-99.9,9,-99,-9.9,1011.4,-99.9,27.4,2,-9.999,9,35.81
Ryofu-maru_MRI,Ry8701,193,1987,1,22,9,,12.483,136.883,348.5,2,329.3,2,-99,-9.9,1011.8,-99.9,27.3,2,-9.999,9,35.6
Ryofu-maru_MRI,Ry8701,194,1987,1,22,10,,12.483,136.867,348.2,2,328,2,-99,-9.9,1012.4,-99.9,27.3,2,-9.999,9,35.6
Ryofu-maru_MRI,Ry8701,195,1987,1,22,11,,12.467,136.833,348.1,2,327.9,2,-99,-9.9,1013,-99.9,27.3,2,-9.999,9,35.6
Ryofu-maru_MRI,Ry8701,196,1987,1,22,12,,12.467,136.817,348,2,328.1,2,-99,-9.9,1013.5,-99.9,27.3,2,-9.999,9,35.6
Ryofu-maru_MRI,Ry8701,197,1987,1,22,13,,12.467,136.783,348,2,326.2,2,-99,-9.9,1013.8,-99.9,27.2,2,-9.999,9,35.4
Ryofu-maru_MRI,Ry8701,198,1987,1,22,14,,12.45,136.767,348.1,2,327,2,-99,-9.9,1013.8,-99.9,27.2,2,-9.999,9,35.4
Ryofu-maru_MRI,Ry8701,199,1987,1,22,15,,12.45,136.733,348.1,2,328.9,2,-99,-9.9,1013.6,-99.9,27.2,2,-9.999,9,35.4
Ryofu-maru_MRI,Ry8701,200,1987,1,22,16,,12.4,136.75,348,2,325.8,2,-99,-9.9,1013.2,-99.9,27.2,2,-9.999,9,35.4
Ryofu-maru_MRI,Ry8701,201,1987,1,22,17,,12.333,136.783,348,2,325.5,2,-99,-9.9,1012.7,-99.9,27.2,2,-9.999,9,35.4
Ryofu-maru_MRI,Ry8701,202,1987,1,22,18,,12.283,136.8,348,2,326,2,-99,-9.9,1012.3,-99.9,27.2,2,-9.999,9,35.4
Ryofu-maru_MRI,Ry8701,203,1987,1,22,19,,12.2,136.867,348,2,328.2,2,-99,-9.9,1012.1,-99.9,27.3,2,-9.999,9,35.6
Ryofu-maru_MRI,Ry8701,204,1987,1,22,20,,12.1,136.917,348,2,328.3,2,-99,-9.9,1012.2,-99.9,27.2,2,-9.999,9,35.4
Ryofu-maru_MRI,Ry8701,205,1987,1,22,21,,12.017,136.983,348.1,2,327.7,2,-99,-9.9,1012.5,-99.9,27.2,2,-9.999,9,35.4
Ryofu-maru_MRI,Ry8701,206,1987,1,22,22,,11.917,136.983,348.1,2,331.7,2,-99,-9.9,1013,-99.9,27.2,2,-9.999,9,35.4
Ryofu-maru_MRI,Ry8701,207,1987,1,22,23,,11.8,136.983,348.2,2,331.6,2,-99,-9.9,1013.5,-99.9,27.1,2,-9.999,9,35.19
Ryofu-maru_MRI,Ry8701,208,1987,1,23,0,,11.7,136.983,348.1,2,330.9,2,-99,-9.9,1013.6,-99.9,27.2,2,-9.999,9,35.4